TimeCDT,TemperatureF,Dew PointF,Humidity,Sea Level PressureIn,VisibilityMPH,Wind Direction,Wind SpeedMPH,Gust SpeedMPH,PrecipitationIn,Events,Conditions,WindDirDegrees,DateUTC
12:15 AM,68.0,59.0,73,29.89,10.0,ESE,11.5,-,N/A,Thunderstorm,Scattered Clouds,110,2013-04-23 05:15:00
12:35 AM,66.2,57.2,73,29.90,10.0,ESE,4.6,-,N/A,Thunderstorm,Scattered Clouds,110,2013-04-23 05:35:00
1:15 AM,66.2,59.0,78,29.89,10.0,ESE,12.7,-,N/A,Rain-Thunderstorm,Light Thunderstorms and Rain,120,2013-04-23 06:15:00
1:35 AM,66.2,55.4,68,29.85,10.0,SE,16.1,-,N/A,,Scattered Clouds,140,2013-04-23 06:35:00
1:55 AM,66.2,55.4,68,29.85,10.0,SE,11.5,-,N/A,,Clear,140,2013-04-23 06:55:00
2:15 AM,68.0,55.4,64,29.86,10.0,SSE,12.7,-,N/A,,Clear,150,2013-04-23 07:15:00
2:35 AM,66.2,55.4,68,29.85,10.0,SSE,11.5,-,N/A,,Clear,160,2013-04-23 07:35:00
2:55 AM,66.2,55.4,68,29.84,10.0,SSE,10.4,16.1,N/A,,Clear,150,2013-04-23 07:55:00
3:15 AM,66.2,55.4,68,29.83,10.0,SSE,11.5,-,N/A,,Clear,160,2013-04-23 08:15:00
3:35 AM,66.2,55.4,68,29.84,10.0,South,8.1,-,N/A,,Mostly Cloudy,170,2013-04-23 08:35:00
3:55 AM,66.2,57.2,73,29.87,10.0,WNW,8.1,-,N/A,,Overcast,290,2013-04-23 08:55:00
4:15 AM,59.0,55.4,88,29.89,10.0,NNW,17.3,23.0,N/A,,Overcast,330,2013-04-23 09:15:00
4:35 AM,51.8,51.8,100,29.89,10.0,North,19.6,24.2,N/A,,Overcast,350,2013-04-23 09:35:00
4:55 AM,51.8,50.0,94,29.92,10.0,NNW,15.0,24.2,N/A,,Overcast,340,2013-04-23 09:55:00
5:15 AM,48.2,48.2,100,29.92,10.0,NNW,16.1,-,N/A,,Overcast,340,2013-04-23 10:15:00
5:35 AM,46.4,46.4,100,29.92,10.0,North,21.9,25.3,N/A,,Overcast,350,2013-04-23 10:35:00
5:55 AM,44.6,44.6,100,29.93,10.0,North,16.1,24.2,N/A,,Overcast,350,2013-04-23 10:55:00
6:15 AM,44.6,44.6,100,29.93,5.0,North,16.1,25.3,N/A,,Overcast,350,2013-04-23 11:15:00
6:35 AM,44.6,44.6,100,29.94,3.0,NNW,16.1,24.2,N/A,Rain,Light Rain,340,2013-04-23 11:35:00
6:55 AM,44.6,44.6,100,29.94,3.0,NNW,13.8,-,N/A,Rain,Light Rain,340,2013-04-23 11:55:00
7:15 AM,42.8,42.8,100,29.96,2.0,NNW,16.1,21.9,N/A,Rain,Light Rain,340,2013-04-23 12:15:00
7:35 AM,42.8,42.8,100,29.97,1.8,North,21.9,25.3,N/A,Rain,Light Rain,350,2013-04-23 12:35:00
7:55 AM,42.8,42.8,100,29.99,2.0,North,16.1,29.9,N/A,Rain,Light Rain,360,2013-04-23 12:55:00
8:15 AM,42.8,42.8,100,29.99,2.0,North,19.6,26.5,N/A,Rain,Light Rain,350,2013-04-23 13:15:00
8:35 AM,42.8,42.8,100,30.00,2.5,North,19.6,25.3,N/A,Rain,Light Rain,360,2013-04-23 13:35:00
8:55 AM,42.8,42.8,100,30.01,2.5,North,18.4,-,N/A,Rain,Light Rain,350,2013-04-23 13:55:00
9:15 AM,42.8,42.8,100,30.02,2.5,North,20.7,25.3,N/A,Rain,Light Rain,350,2013-04-23 14:15:00
9:35 AM,42.8,42.8,100,30.02,2.5,North,23.0,26.5,N/A,Rain,Light Rain,350,2013-04-23 14:35:00
9:55 AM,41.0,41.0,100,30.03,2.5,North,18.4,26.5,N/A,Rain,Light Rain,360,2013-04-23 14:55:00
10:15 AM,42.8,42.8,100,30.04,3.0,North,19.6,24.2,N/A,,Overcast,360,2013-04-23 15:15:00
10:35 AM,41.0,41.0,100,30.05,2.5,North,19.6,26.5,N/A,,Overcast,360,2013-04-23 15:35:00
10:55 AM,41.0,41.0,100,30.07,2.5,North,17.3,23.0,N/A,,Overcast,360,2013-04-23 15:55:00
11:15 AM,41.0,41.0,100,30.08,4.0,North,17.3,26.5,N/A,,Overcast,350,2013-04-23 16:15:00
11:35 AM,41.0,41.0,100,30.08,2.0,North,17.3,21.9,N/A,,Overcast,350,2013-04-23 16:35:00
11:55 AM,41.0,41.0,100,30.09,2.5,North,20.7,26.5,N/A,,Overcast,350,2013-04-23 16:55:00
12:15 PM,41.0,41.0,100,30.09,10.0,North,17.3,26.5,N/A,,Overcast,360,2013-04-23 17:15:00
12:35 PM,41.0,41.0,100,30.09,5.0,North,18.4,25.3,N/A,,Overcast,350,2013-04-23 17:35:00
12:55 PM,41.0,41.0,100,30.09,3.0,North,16.1,24.2,N/A,,Overcast,350,2013-04-23 17:55:00
1:15 PM,41.0,41.0,100,30.09,3.0,North,17.3,21.9,N/A,,Overcast,350,2013-04-23 18:15:00
1:35 PM,41.0,41.0,100,30.09,4.0,North,17.3,21.9,N/A,,Overcast,350,2013-04-23 18:35:00
1:55 PM,41.0,41.0,100,30.09,2.5,North,19.6,24.2,N/A,,Overcast,350,2013-04-23 18:55:00
2:15 PM,41.0,41.0,100,30.09,1.8,NNW,19.6,25.3,N/A,Rain,Light Rain,340,2013-04-23 19:15:00
2:35 PM,41.0,41.0,100,30.09,5.0,NNW,17.3,24.2,N/A,,Overcast,340,2013-04-23 19:35:00
2:55 PM,41.0,41.0,100,30.09,10.0,North,16.1,20.7,N/A,,Overcast,360,2013-04-23 19:55:00
3:15 PM,41.0,41.0,100,30.09,7.0,North,19.6,-,N/A,,Overcast,350,2013-04-23 20:15:00
3:35 PM,41.0,41.0,100,30.09,3.0,North,18.4,25.3,N/A,,Overcast,350,2013-04-23 20:35:00
3:55 PM,41.0,41.0,100,30.09,5.0,North,18.4,-,N/A,,Overcast,350,2013-04-23 20:55:00
4:15 PM,41.0,41.0,100,30.10,10.0,North,17.3,25.3,N/A,,Overcast,350,2013-04-23 21:15:00
4:35 PM,41.0,41.0,100,30.10,7.0,North,19.6,25.3,N/A,,Overcast,350,2013-04-23 21:35:00
4:55 PM,41.0,39.2,93,30.10,10.0,North,17.3,24.2,N/A,,Overcast,350,2013-04-23 21:55:00
5:35 PM,41.0,41.0,100,30.11,7.0,North,15.0,24.2,N/A,,Overcast,360,2013-04-23 22:35:00
5:55 PM,41.0,39.2,93,30.12,5.0,North,20.7,27.6,N/A,,Overcast,350,2013-04-23 22:55:00
6:15 PM,39.2,39.2,100,30.12,5.0,North,18.4,25.3,N/A,,Overcast,360,2013-04-23 23:15:00
6:35 PM,39.2,39.2,100,30.12,4.0,North,18.4,21.9,N/A,,Overcast,350,2013-04-23 23:35:00
6:55 PM,37.4,37.4,100,30.14,4.0,North,16.1,-,N/A,,Overcast,350,2013-04-23 23:55:00
7:15 PM,37.4,37.4,100,30.14,4.0,North,16.1,19.6,N/A,,Overcast,350,2013-04-24 00:15:00
7:35 PM,37.4,37.4,100,30.15,10.0,North,16.1,21.9,N/A,,Overcast,360,2013-04-24 00:35:00
7:55 PM,39.2,37.4,93,30.15,10.0,North,12.7,23.0,N/A,,Overcast,360,2013-04-24 00:55:00
8:15 PM,37.4,37.4,100,30.15,10.0,North,19.6,24.2,N/A,,Overcast,360,2013-04-24 01:15:00
8:35 PM,37.4,37.4,100,30.15,10.0,North,19.6,26.5,N/A,,Overcast,350,2013-04-24 01:35:00
8:55 PM,37.4,37.4,100,30.16,10.0,North,17.3,25.3,N/A,,Overcast,350,2013-04-24 01:55:00
9:15 PM,37.4,37.4,100,30.18,10.0,North,15.0,21.9,N/A,,Overcast,360,2013-04-24 02:15:00
9:35 PM,37.4,37.4,100,30.20,10.0,North,16.1,21.9,N/A,,Overcast,350,2013-04-24 02:35:00
9:55 PM,37.4,37.4,100,30.22,10.0,NNW,15.0,-,N/A,,Overcast,340,2013-04-24 02:55:00
10:15 PM,37.4,37.4,100,30.22,10.0,North,17.3,21.9,N/A,,Overcast,350,2013-04-24 03:15:00
10:35 PM,37.4,37.4,100,30.23,10.0,North,20.7,24.2,N/A,,Overcast,350,2013-04-24 03:35:00
10:55 PM,37.4,37.4,100,30.24,10.0,North,16.1,23.0,N/A,,Overcast,350,2013-04-24 03:55:00
11:15 PM,37.4,35.6,93,30.24,10.0,NNW,16.1,21.9,N/A,,Overcast,340,2013-04-24 04:15:00
11:35 PM,37.4,35.6,93,30.24,10.0,North,13.8,-,N/A,,Overcast,350,2013-04-24 04:35:00
11:55 PM,37.4,35.6,93,30.24,10.0,North,15.0,20.7,N/A,,Overcast,360,2013-04-24 04:55:00